PDT,Max TemperatureF,Mean TemperatureF,Min TemperatureF,Max Dew PointF,MeanDew PointF,Min DewpointF,Max Humidity, Mean Humidity, Min Humidity, Max Sea Level PressureIn, Mean Sea Level PressureIn, Min Sea Level PressureIn, Max VisibilityMiles, Mean VisibilityMiles, Min VisibilityMiles, Max Wind SpeedMPH, Mean Wind SpeedMPH, Max Gust SpeedMPH,PrecipitationIn, CloudCover, Events, WindDirDegrees
2011-10-1,61,56,52,53,50,46,94,84,62,29.99,29.93,29.87,10,10,10,9,2,,0.00,5,,328
2011-10-2,62,55,48,54,51,46,97,86,70,29.98,29.89,29.78,10,9,7,18,6,29,0.11,6,Rain,79
2011-10-3,62,57,53,54,52,50,96,87,72,29.83,29.80,29.77,10,9,3,17,10,16,0.47,5,Rain,124
2011-10-4,55,52,50,52,49,46,93,85,77,29.77,29.56,29.41,10,9,2,22,12,31,0.20,7,Rain,92
2011-10-5,57,54,50,52,49,46,96,86,72,29.77,29.56,29.42,10,10,4,14,7,,0.11,5,Rain,115
2011-10-6,59,52,46,54,49,46,100,88,69,30.10,29.95,29.79,10,8,2,13,2,,0.00,6,,266
2011-10-7,57,55,53,56,54,50,100,95,80,30.22,30.15,30.09,10,5,2,13,5,,0.38,8,Rain,145
2011-10-8,61,56,53,56,53,52,100,92,75,30.22,30.17,30.10,10,8,2,14,6,,0.25,8,Rain,98
2011-10-9,60,54,48,54,50,46,100,87,64,30.10,30.02,29.79,10,9,2,10,5,,0.03,4,Rain,242
2011-10-10,61,56,51,57,53,48,100,93,77,29.77,29.58,29.50,10,7,2,25,10,33,0.40,8,Rain,109
2011-10-11,60,56,53,55,53,47,100,87,74,30.10,29.81,29.54,10,7,1,34,19,40,0.97,8,Rain,205
2011-10-12,61,54,48,53,49,46,100,86,69,30.25,30.22,30.13,10,9,2,14,6,,0.11,5,Rain,136
2011-10-13,60,52,45,47,45,43,97,80,57,30.26,30.16,30.04,10,9,5,14,5,,0.00,1,,38
2011-10-14,61,54,48,48,46,43,89,76,62,30.03,30.00,29.97,10,10,10,9,6,,0.00,3,,19
2011-10-15,62,50,39,47,44,38,100,82,50,30.11,30.06,30.03,10,10,6,8,3,,0.00,0,,39
2011-10-16,57,47,37,47,42,37,100,86,62,30.34,30.17,30.06,10,8,1,9,4,,0.00,1,,55
2011-10-17,63,50,37,48,42,37,100,81,41,30.43,30.37,30.30,10,9,2,10,5,,0.00,1,,51
2011-10-18,71,57,46,52,46,39,86,71,52,30.26,30.07,29.93,10,10,10,15,11,,0.00,0,,67
2011-10-19,57,54,50,54,52,47,100,89,75,30.12,30.03,29.92,10,9,4,14,6,,0.01,7,Rain,172
2011-10-20,57,54,52,54,52,51,100,94,87,30.12,30.10,30.07,10,8,2,7,4,,0.05,8,Rain,158
2011-10-21,57,55,53,57,54,52,100,94,88,30.25,30.17,30.10,10,7,2,24,9,31,0.49,8,Rain,163
2011-10-22,59,57,55,58,57,54,100,96,93,30.24,30.18,30.11,10,4,1,24,10,29,0.97,8,Rain,209
2011-10-23,57,52,45,54,49,42,100,92,69,30.23,30.21,30.16,10,6,0,12,3,,0.00,3,Fog,273
2011-10-24,57,49,41,47,43,40,97,80,59,30.40,30.31,30.20,10,10,10,15,4,,0.00,1,Rain,288
2011-10-25,54,44,35,45,40,35,100,91,69,30.48,30.44,30.40,10,6,0,10,4,,0.00,3,Fog-Snow,69
2011-10-26,53,45,37,48,40,37,100,93,74,30.39,30.31,30.21,10,5,0,14,7,18,0.02,5,Fog-Rain-Snow,68
2011-10-27,55,45,35,46,39,34,100,86,53,30.33,30.26,30.05,10,6,0,14,6,20,0.00,2,Fog,49
2011-10-28,55,50,45,55,48,39,100,87,74,30.14,29.96,29.86,10,6,1,28,14,45,0.85,7,Rain,172
2011-10-29,59,48,39,50,44,39,100,92,67,30.31,30.23,30.16,10,5,0,9,3,,0.00,3,Fog,60
2011-10-30,57,52,46,56,51,43,100,94,80,30.26,30.11,30.04,10,6,1,17,9,22,0.32,7,Rain,243
2011-10-31,53,46,39,44,41,37,97,81,59,30.49,30.40,30.27,10,10,10,13,3,25,0.03,2,Rain,290